GW4714 Weather Reports


time (UTC)temp
C
wind
direction
speed
KPH
gust
KPH
rain 1hr
cm
rain 24hr
cm
rain mn
cm
humidity
%
barometer
mb
20260508144558 16 0 0.0 1.6 0.00 0.18 0.00 45 1018.6
20260508143101 16 0 0.0 1.6 0.00 0.18 0.00 46 1018.7
20260508141557 16 0 0.0 0.0 0.00 0.18 0.00 46 1018.5
20260508140106 15 0 0.0 0.0 0.00 0.18 0.00 49 1018.4
20260508134557 15 0 0.0 0.0 0.00 0.18 0.00 53 1018.3
20260508133104 14 0 0.0 0.0 0.00 0.18 0.00 55 1018.1
20260508131600 14 0 0.0 0.0 0.00 0.18 0.00 56 1018.0
20260508130111 14 0 0.0 0.0 0.00 0.18 0.00 66 1018.0
20260508124558 12 0 0.0 0.0 0.00 0.38 0.00 72 1018.0
20260508123100 11 0 0.0 0.0 0.00 0.38 0.00 80 1017.9
20260508121631 10 0 0.0 0.0 0.00 0.38 0.00 84 1017.8
20260508120056 8 0 0.0 0.0 0.00 0.38 0.00 87 1017.6
20260508114558 7 0 0.0 0.0 0.00 0.66 0.00 88 1017.4
20260508113104 7 0 0.0 0.0 0.00 0.66 0.00 89 1017.2
20260508111610 6 0 0.0 0.0 0.00 0.66 0.00 89 1017.0
20260508110059 6 0 0.0 0.0 0.00 0.66 0.00 90 1016.8
20260508104604 6 0 0.0 0.0 0.00 0.66 0.00 89 1016.6
20260508103058 6 0 0.0 0.0 0.00 0.66 0.00 89 1016.3
20260508101602 7 0 0.0 0.0 0.00 0.66 0.00 88 1016.2
20260508100058 7 0 0.0 0.0 0.00 0.66 0.00 89 1016.1
20260508094603 7 0 0.0 0.0 0.00 0.66 0.00 88 1016.0
20260508093057 7 0 0.0 0.0 0.00 0.66 0.00 90 1015.9
20260508091605 7 0 0.0 0.0 0.00 0.66 0.00 91 1015.8
20260508090113 7 0 0.0 0.0 0.00 0.66 0.00 91 1015.6
20260508084558 7 0 0.0 0.0 0.00 0.66 0.00 91 1015.6
20260508083055 7 0 0.0 0.0 0.00 0.66 0.00 91 1015.5
20260508081609 7 0 0.0 0.0 0.00 0.66 0.00 90 1015.4
20260508080057 8 0 0.0 0.0 0.00 0.66 0.00 89 1015.4
20260508074557 8 0 0.0 0.0 0.00 0.66 0.00 90 1015.4
20260508073107 7 0 0.0 0.0 0.00 0.66 0.00 90 1015.2
20260508071623 8 0 0.0 0.0 0.00 0.66 0.00 90 1015.1
20260508064556 8 0 0.0 0.0 0.00 0.74 0.00 90 1014.8
20260508063055 8 0 0.0 0.0 0.00 0.74 0.00 88 1014.8
20260508061557 8 0 0.0 0.0 0.00 0.74 0.00 89 1014.8
20260508060055 8 0 0.0 0.0 0.00 0.74 0.00 88 1015.0
20260508054609 8 0 0.0 0.0 0.00 0.81 0.00 88 1014.9
20260508053058 9 0 0.0 0.0 0.00 0.81 0.00 87 1014.7
20260508051556 10 0 0.0 0.0 0.00 0.81 0.00 85 1014.6
20260508050054 10 0 0.0 0.0 0.00 0.81 0.00 85 1014.5
20260508044600 10 0 0.0 0.0 0.00 0.89 0.00 82 1014.3
20260508043056 10 0 0.0 0.0 0.00 0.89 0.00 83 1014.3
20260508041556 10 0 0.0 0.0 0.00 0.89 0.00 84 1014.3
20260508040100 10 0 0.0 0.0 0.00 0.89 0.00 85 1014.2
20260508034555 10 0 0.0 0.0 0.00 0.89 0.89 82 1014.3
20260508033115 11 0 0.0 0.0 0.00 0.89 0.89 80 1014.3
20260508031554 11 0 0.0 0.0 0.00 0.89 0.89 79 1014.2
20260508030108 11 0 0.0 0.0 0.00 0.89 0.89 79 1014.2
20260508024619 11 0 0.0 0.0 0.00 1.07 0.89 80 1013.9
20260508023100 11 0 0.0 0.0 0.00 1.07 0.89 80 1013.7
20260508021555 11 0 0.0 0.0 0.00 1.07 0.89 78 1013.6
20260508020109 12 0 0.0 0.0 0.00 1.07 0.89 73 1013.3
20260508014616 13 0 0.0 0.0 0.00 1.14 0.89 71 1013.1
20260508013107 13 0 0.0 0.0 0.00 1.14 0.89 69 1012.9
20260508011601 14 0 0.0 0.0 0.00 1.14 0.89 66 1012.5
20260508010115 14 0 0.0 0.0 0.00 1.14 0.89 64 1012.3
20260508004558 15 0 0.0 3.2 0.00 1.30 0.89 63 1012.3
20260508003100 15 0 0.0 11.3 0.00 1.30 0.89 63 1012.0
20260508001602 15 0 0.0 4.8 0.00 1.30 0.89 64 1012.0
20260508000058 16 320 1.6 6.4 0.00 1.30 0.89 62 1012.2
20260507234558 17 0 1.6 16.1 0.00 1.37 0.89 62 1012.1
20260507233056 17 0 1.6 14.5 0.00 1.37 0.89 64 1011.8
20260507231557 18 292 1.6 16.1 0.00 1.37 0.89 65 1011.5
20260507230104 18 0 0.0 12.9 0.00 1.37 0.89 69 1011.2
20260507224609 18 0 0.0 6.4 0.00 1.37 0.89 78 1010.8
20260507223059 18 0 0.0 0.0 0.00 1.37 0.89 81 1010.6
20260507221604 18 0 0.0 4.8 0.00 1.37 0.89 82 1010.1
20260507220100 18 0 0.0 1.6 0.00 1.37 0.89 82 1009.8
20260507214558 17 0 0.0 6.4 0.00 1.37 0.89 84 1009.9
20260507213101 17 0 0.0 9.7 0.00 1.37 0.89 83 1009.7
20260507211557 17 0 0.0 3.2 0.00 1.37 0.89 83 1009.5
20260507210058 18 0 0.0 16.1 0.00 1.37 0.89 83 1009.2
20260507204555 18 0 0.0 12.9 0.00 1.37 0.89 83 1009.2
20260507203101 19 67 0.0 16.1 0.00 1.37 0.89 82 1008.8
20260507201559 19 63 6.4 19.3 0.00 1.37 0.89 82 1008.7
20260507200100 19 0 0.0 16.1 0.00 1.37 0.89 84 1008.7
20260507194558 18 0 4.8 24.1 0.05 1.37 0.89 85 1008.5
20260507193053 18 0 3.2 19.3 0.18 1.37 0.89 87 1008.6
20260507191602 20 63 3.2 17.7 0.18 1.37 0.89 85 1008.9
20260507190059 21 0 0.0 0.0 0.18 1.37 0.89 87 1008.5
20260507184554 21 0 0.0 1.6 0.13 1.32 0.84 83 1008.4
20260507183106 22 0 0.0 0.0 0.00 1.19 0.71 75 1008.6
20260507181556 23 0 0.0 12.9 0.00 1.19 0.71 72 1008.5
20260507180057 23 0 0.0 6.4 0.00 1.19 0.71 71 1008.4
20260507174601 23 0 0.0 6.4 0.00 1.19 0.71 73 1008.5
20260507173102 23 0 0.0 6.4 0.00 1.19 0.71 74 1008.7
20260507171558 23 292 0.0 9.7 0.00 1.19 0.71 74 1008.9
20260507170058 23 0 1.6 12.9 0.00 1.19 0.71 74 1009.2
20260507164556 22 0 0.0 6.4 0.00 1.27 0.71 77 1009.5
20260507163059 22 0 0.0 1.6 0.00 1.27 0.71 78 1009.7
20260507161558 21 0 0.0 1.6 0.00 1.27 0.71 80 1009.9
20260507160056 21 0 0.0 0.0 0.00 1.27 0.71 83 1009.6
20260507154602 20 0 0.0 0.0 0.00 1.32 0.71 86 1009.2
20260507153104 20 0 0.0 1.6 0.00 1.32 0.71 86 1009.4
20260507151555 19 0 0.0 1.6 0.00 1.32 0.71 89 1009.9
20260507150108 18 0 0.0 1.6 0.00 1.32 0.71 92 1009.9